Location: Karlsruhe
(49.0131°N, 8.3874°E)
Time: 12:43:19
(UTC+02:00)

ISS - Pass Details

Date: 04 January 2018
Orbit: 402 x 408 km, 51.6° (Epoch: 20 July)

Event Time Altitude Azimuth Distance (km) Brightness Sun altitude
Exits shadow 05:29:30 22° 71° (ENE) 961 -1.3 -26.9°
Drops below altitude 10° 05:30:52 10° 71° (ENE) 1,501 -0.1 -26.7°
Enters shadow 06:27:04 -69° 260° (W) 12,307 3.6 -17.6°
